Weather History for Presque Isle, ME

Change the Weather History Date:

Wednesday, January 2, 2013

  Actual Average Record
Temperature  
Mean Temperature 0 °F -  
Max Temperature 6 °F 23 °F 50 °F (1945)
Min Temperature -5 °F 4 °F -29 °F (2014)
Degree Days  
Heating Degree Days 64    
Moisture  
Dew Point -9 °F    
Average Humidity 64    
Maximum Humidity 78    
Minimum Humidity 48    
Precipitation  
Precipitation 0.00 in - - ()
Sea Level Pressure  
Sea Level Pressure 29.65 in    
Wind  
Wind Speed 11 mph (West)    
Max Wind Speed 23 mph    
Max Gust Speed 31 mph    
Visibility 10 miles    
Events      
Averages and records for this station are not official NWS values.
T = Trace of Precipitation, MM = Missing Value Source: NWS Daily Summary

Daily Weather History Graph

Daily Weather History Graph

Search for Another Location

Airport:

Trip Planner

Search our weather history database for the weather conditions in past years. The results will help you decide how hot, cold, wet, or windy it might be!

Date:

Astronomy

Jan. 02, 2013 Rise Set
Actual Time 7:16 AM EST 3:56 PM EST
Civil Twilight 6:41 AM EST 4:31 PM EST
Nautical Twilight 6:03 AM EST 5:09 PM EST
Astronomical Twilight 5:26 AM EST 5:46 PM EST
Moon 9:47 PM EST (1/2) 9:36 AM EST (1/2)
Length of Visible Light 9h 49m
Length of Day
8h 39m
Waning Gibbous, 75% of the Moon is Illuminated
Jan 2
Waning Gibbous
Jan 4
Last Quarter
Jan 11
New
Jan 18
First Quarter
Jan 26
Full

Hourly Weather History & Observations

Time (EST) Temp. Windchill Dew Point Humidity Pressure Visibility Wind Dir Wind Speed Gust Speed Precip Events Conditions
12:15 AM -0.4 °F -12.0 °F -7.6 °F 72% 29.57 in 10.0 mi West 5.8 mph - N/A   Clear
12:35 AM -0.4 °F -12.0 °F -7.6 °F 72% 29.57 in 10.0 mi West 5.8 mph - N/A   Clear
12:55 AM -0.4 °F -15.7 °F -7.6 °F 72% 29.58 in 10.0 mi West 9.2 mph - N/A   Clear
1:15 AM -0.4 °F -16.7 °F -7.6 °F 72% 29.58 in 10.0 mi West 10.4 mph 16.1 mph N/A   Clear
1:35 AM -0.4 °F -14.7 °F -9.4 °F 66% 29.59 in 10.0 mi West 8.1 mph - N/A   Clear
1:55 AM -0.4 °F -15.7 °F -9.4 °F 66% 29.59 in 10.0 mi West 9.2 mph - N/A   Clear
2:15 AM -2.2 °F -18.0 °F -9.4 °F 71% 29.59 in 10.0 mi West 9.2 mph 18.4 mph N/A   Clear
2:35 AM -2.2 °F -16.8 °F -9.4 °F 71% 29.60 in 10.0 mi West 8.1 mph - N/A   Clear
2:55 AM -2.2 °F -18.0 °F -9.4 °F 71% 29.60 in 10.0 mi West 9.2 mph - N/A   Clear
3:15 AM -2.2 °F -18.0 °F -9.4 °F 71% 29.60 in 10.0 mi West 9.2 mph 16.1 mph N/A   Clear
3:35 AM -2.2 °F -18.0 °F -9.4 °F 71% 29.61 in 10.0 mi West 9.2 mph - N/A   Clear
3:55 AM -2.2 °F -18.0 °F -9.4 °F 71% 29.60 in 10.0 mi West 9.2 mph - N/A   Clear
4:15 AM -4.0 °F -17.8 °F -9.4 °F 78% 29.60 in 10.0 mi West 6.9 mph - N/A   Clear
4:35 AM -4.0 °F -17.8 °F -11.2 °F 71% 29.60 in 10.0 mi West 6.9 mph - N/A   Clear
5:15 AM -4.0 °F -17.8 °F -9.4 °F 78% 29.60 in 10.0 mi West 6.9 mph - N/A   Clear
5:35 AM -4.0 °F -17.8 °F - N/A% 29.60 in 10.0 mi West 6.9 mph - N/A   Clear
5:55 AM -4.0 °F -19.0 °F -11.2 °F 71% 29.59 in 10.0 mi West 8.1 mph - N/A   Clear
6:15 AM -4.0 °F -17.8 °F -9.4 °F 78% 29.59 in 10.0 mi West 6.9 mph - N/A   Clear
6:35 AM -5.8 °F -25.2 °F -11.2 °F 77% 29.60 in 10.0 mi West 12.7 mph - N/A   Clear
6:55 AM -5.8 °F -26.8 °F -13.0 °F 71% 29.59 in 10.0 mi West 15.0 mph - N/A   Clear
7:15 AM -5.8 °F -25.2 °F -11.2 °F 77% 29.60 in 10.0 mi West 12.7 mph - N/A   Clear
7:35 AM -5.8 °F -21.2 °F -11.2 °F 77% 29.60 in 10.0 mi West 8.1 mph - N/A   Clear
7:55 AM -4.0 °F -21.2 °F - N/A% 29.61 in 10.0 mi West 10.4 mph - N/A   Clear
8:15 AM -4.0 °F -23.0 °F -11.2 °F 71% 29.60 in 10.0 mi West 12.7 mph 16.1 mph N/A   Clear
8:35 AM -2.2 °F -21.5 °F -11.2 °F 66% 29.61 in 10.0 mi West 13.8 mph - N/A   Clear
8:55 AM -2.2 °F -23.5 °F -11.2 °F 66% 29.61 in 10.0 mi West 17.3 mph 23.0 mph N/A   Clear
9:15 AM -0.4 °F -21.2 °F -9.4 °F 66% 29.61 in 10.0 mi West 17.3 mph 24.2 mph N/A   Clear
9:35 AM -0.4 °F -19.9 °F -9.4 °F 66% 29.61 in 10.0 mi West 15.0 mph 24.2 mph N/A   Clear
9:55 AM 1.4 °F -18.2 °F -11.2 °F 56% 29.61 in 10.0 mi West 16.1 mph 25.3 mph N/A   Clear
10:15 AM 1.4 °F -19.9 °F -11.2 °F 56% 29.61 in 10.0 mi West 19.6 mph 25.3 mph N/A   Clear
10:35 AM 1.4 °F -18.8 °F -9.4 °F 61% 29.61 in 10.0 mi West 17.3 mph 23.0 mph N/A   Clear
10:55 AM 3.2 °F -17.1 °F -11.2 °F 51% 29.60 in 10.0 mi West 18.4 mph 25.3 mph N/A   Clear
11:35 AM 3.2 °F -17.1 °F -9.4 °F 56% 29.59 in 10.0 mi West 18.4 mph 23.0 mph N/A   Clear
11:55 AM 5.0 °F -15.7 °F -9.4 °F 52% 29.59 in 10.0 mi West 20.7 mph 27.6 mph N/A   Clear
12:15 PM 6.8 °F -14.3 °F -9.4 °F 48% 29.59 in 10.0 mi West 23.0 mph 28.8 mph N/A   Clear
12:35 PM 6.8 °F -11.8 °F -7.6 °F 52% 29.59 in 10.0 mi WNW 17.3 mph 31.1 mph N/A   Clear
12:55 PM 6.8 °F -12.9 °F -7.6 °F 52% 29.59 in 10.0 mi WNW 19.6 mph 28.8 mph N/A   Clear
1:15 PM 6.8 °F -11.3 °F -7.6 °F 52% 29.59 in 10.0 mi West 16.1 mph 27.6 mph N/A   Clear
1:35 PM 6.8 °F -9.3 °F -9.4 °F 48% 29.60 in 10.0 mi West 12.7 mph 27.6 mph N/A   Clear
1:55 PM 6.8 °F -13.4 °F -7.6 °F 52% 29.61 in 10.0 mi West 20.7 mph 26.5 mph N/A   Clear
2:15 PM 6.8 °F -11.3 °F -7.6 °F 52% 29.61 in 10.0 mi West 16.1 mph 26.5 mph N/A   Clear
2:35 PM 6.8 °F -12.4 °F -7.6 °F 52% 29.62 in 10.0 mi WNW 18.4 mph 25.3 mph N/A   Clear
2:55 PM 6.8 °F -9.3 °F -7.6 °F 52% 29.63 in 10.0 mi West 12.7 mph 24.2 mph N/A   Clear
3:15 PM 6.8 °F -10.7 °F -7.6 °F 52% 29.63 in 10.0 mi West 15.0 mph 25.3 mph N/A   Clear
3:35 PM 6.8 °F -11.3 °F -7.6 °F 52% 29.64 in 10.0 mi West 16.1 mph 20.7 mph N/A   Scattered Clouds
3:55 PM 6.8 °F -10.7 °F -7.6 °F 52% 29.65 in 10.0 mi West 15.0 mph - N/A   Mostly Cloudy
4:15 PM 5.0 °F -14.7 °F -5.8 °F 61% 29.67 in 10.0 mi WNW 18.4 mph - N/A   Mostly Cloudy
4:35 PM 5.0 °F -13.0 °F -7.6 °F 56% 29.67 in 10.0 mi WNW 15.0 mph 20.7 mph N/A   Partly Cloudy
4:55 PM 3.2 °F -13.9 °F -5.8 °F 66% 29.69 in 10.0 mi West 12.7 mph 19.6 mph N/A   Clear
5:15 PM 3.2 °F -14.6 °F -7.6 °F 61% 29.70 in 10.0 mi West 13.8 mph 20.7 mph N/A   Clear
5:35 PM 3.2 °F -13.9 °F -7.6 °F 61% 29.72 in 10.0 mi West 12.7 mph - N/A   Clear
5:55 PM 3.2 °F -13.9 °F -7.6 °F 61% 29.73 in 10.0 mi West 12.7 mph 18.4 mph N/A   Clear
6:15 PM 3.2 °F -13.1 °F -5.8 °F 66% 29.73 in 10.0 mi West 11.5 mph 17.3 mph N/A   Clear
6:35 PM 3.2 °F -13.1 °F -5.8 °F 66% 29.75 in 10.0 mi WNW 11.5 mph - N/A   Clear
6:55 PM 3.2 °F -13.9 °F -5.8 °F 66% 29.75 in 10.0 mi WNW 12.7 mph 17.3 mph N/A   Clear
7:15 PM 3.2 °F -12.2 °F -7.6 °F 61% 29.76 in 10.0 mi West 10.4 mph - N/A   Clear
7:55 PM 3.2 °F -14.6 °F -5.8 °F 66% 29.78 in 10.0 mi WNW 13.8 mph 19.6 mph N/A   Clear
8:15 PM 3.2 °F -13.1 °F -7.6 °F 61% 29.78 in 10.0 mi WNW 11.5 mph 21.9 mph N/A   Clear
8:55 PM 3.2 °F -10.3 °F -7.6 °F 61% 29.80 in 10.0 mi West 8.1 mph 16.1 mph N/A   Clear
9:15 PM 1.4 °F -14.5 °F -7.6 °F 66% 29.80 in 10.0 mi West 10.4 mph - N/A   Clear
9:35 PM 1.4 °F -14.5 °F -7.6 °F 66% 29.81 in 10.0 mi West 10.4 mph - N/A   Clear
9:55 PM -0.4 °F -13.4 °F -7.6 °F 72% 29.82 in 10.0 mi West 6.9 mph - N/A   Clear
10:35 PM -0.4 °F -12.0 °F -9.4 °F 66% 29.83 in 10.0 mi West 5.8 mph - N/A   Clear
10:55 PM -0.4 °F -16.7 °F -7.6 °F 72% 29.84 in 10.0 mi West 10.4 mph - N/A   Clear
11:15 PM -0.4 °F -14.7 °F -9.4 °F 66% 29.84 in 10.0 mi West 8.1 mph - N/A   Clear
11:35 PM -0.4 °F -13.4 °F -7.6 °F 72% 29.85 in 10.0 mi West 6.9 mph - N/A   Clear
11:55 PM -0.4 °F -14.7 °F -7.6 °F 72% 29.85 in 10.0 mi West 8.1 mph - N/A   Clear